SCP
3 4 4 2 1 1 1 2 1 1 1 2 1 2 2 1 0 0 0 0 0 0
3 4 3 2 1 1 2 2 2 1 1 2 1 2 1 0 0 0 0 0 0 0
2 2 2 1 1 1 1 0 0 0 1 2 2 0 0 0 0 0 0 0 0 0
1 2 2 1 1 1 0 0 0 0 0 0 0 0 0 0 0 0 0 0 0 0
1 1 1 2 1 1 0 0 0 0 0 0 0 0 0 0 0 0 0 0 0 0
1 0 0 1 1 0 0 0 0 0 0 0 0 0 0 0 0 0 0 0 0 0
0 0 0 1 1 0 0 0 0 0 0 0 0 0 0 0 0 0 0 0 0 0
1 0 1 0 1 0 0 0 0 0 0 0 0 0 0 0 0 0 0 0 0 0
0 1 1 0 0 0 0 0 0 0 0 0 0 0 0 0 0 0 0 0 0 0
0 0 0 0 0 0 0 0 0 0 0 0 0 0 0 0 0 0 0 0 0 0
0 0 0 0 0 0 0 0 0 0 0 0 0 0 -0 -0 0 0 0 0 0 0
0 0 0 0 0 0 0 0 0 0 0 0 0 0 0 0 0 0 0 0 0 0
0 0 0 0 0 0 0 0 0 0 0 0 0 0 0 0 0 0 0 0 0 0
0 0 0 0 0 0 0 0 0 0 0 0 0 0 0 0 0 0 0 0 0 0
Wind_Speed_500mb
57 61 59 58 65 69 68 65 78 71 86 85 68 69 62 57 55 55 46 47 43 34
51 53 50 43 50 57 61 69 72 71 76 83 74 68 68 64 60 53 54 49 43 31
41 44 40 38 44 46 51 64 65 63 64 79 77 72 61 63 57 54 51 46 36 28
45 36 26 30 39 36 44 44 56 57 47 60 84 65 58 62 55 53 51 42 33 30
39 27 21 23 32 37 35 35 37 40 40 40 47 49 67 62 56 54 50 45 41 36
28 35 24 15 22 26 29 38 39 40 35 61 61 62 52 63 58 55 53 48 43 39
20 32 34 31 27 24 23 32 45 63 57 69 67 66 71 63 63 55 49 46 40 43
9 34 40 41 30 31 27 30 38 47 74 83 74 72 75 66 59 62 61 56 54 48
18 34 53 48 39 38 44 55 60 62 39 35 29 36 39 55 68 66 70 64 47 36
12 28 51 46 46 43 42 45 48 54 49 57 46 65 72 75 71 72 63 53 40 33
11 27 44 47 43 46 40 50 55 52 54 68 75 81 78 81 81 72 58 44 45 51
12 38 39 44 47 59 60 59 59 58 60 65 78 82 83 84 69 57 53 54 52 49
14 38 46 52 60 66 62 59 59 64 66 73 88 87 85 80 73 71 71 63 54 48
22 48 58 58 65 67 64 61 59 71 75 77 80 82 80 76 74 73 72 67 61 51
Wind_Direction_500mb
227 239 244 244 238 240 233 220 216 206 212 205 202 203 205 199 194 197 197 199 204 209
227 234 239 238 233 234 234 233 229 220 220 207 205 200 199 199 193 194 199 200 206 214
219 231 238 231 230 231 237 243 234 223 221 216 193 191 202 197 187 189 191 198 200 198
211 217 234 248 238 226 234 244 240 240 213 202 198 185 194 197 187 188 186 185 189 175
200 215 232 260 249 236 231 236 240 237 209 204 163 199 209 201 187 184 177 174 172 165
221 219 229 203 236 245 232 227 230 218 204 190 181 181 195 198 179 175 173 165 164 144
240 233 242 213 220 237 220 218 217 192 184 181 190 194 194 196 178 165 158 154 146 132
334 243 201 194 205 217 198 194 205 201 185 184 191 189 180 174 165 158 150 146 137 134
224 221 207 195 201 196 177 158 151 158 181 197 181 199 186 168 162 156 151 145 139 125
292 224 211 198 198 194 186 184 172 173 170 155 170 201 176 168 164 158 149 145 141 145
289 220 207 197 191 176 168 162 161 171 175 176 175 181 174 166 158 154 155 152 141 139
228 213 203 195 179 166 165 166 166 171 172 173 167 169 170 163 159 167 154 133 139 142
223 207 199 188 172 167 171 169 167 169 174 178 168 170 169 179 174 148 142 142 140 142
240 206 207 187 174 170 171 168 164 168 171 171 170 175 181 169 154 149 148 144 144 142
Wind_Speed_850mb
57 61 59 58 65 69 68 65 78 71 86 85 68 69 62 57 55 55 46 47 43 34
51 53 50 43 50 57 61 69 72 71 76 83 74 68 68 64 60 53 54 49 43 31
41 44 40 38 44 46 51 64 65 63 64 79 77 72 61 63 57 54 51 46 36 28
45 36 26 30 39 36 44 44 56 57 47 60 84 65 58 62 55 53 51 42 33 30
39 27 21 23 32 37 35 35 37 40 40 40 47 49 67 62 56 54 50 45 41 36
28 35 24 15 22 26 29 38 39 40 35 61 61 62 52 63 58 55 53 48 43 39
20 32 34 31 27 24 23 32 45 63 57 69 67 66 71 63 63 55 49 46 40 43
9 34 40 41 30 31 27 30 38 47 74 83 74 72 75 66 59 62 61 56 54 48
18 34 53 48 39 38 44 55 60 62 39 35 29 36 39 55 68 66 70 64 47 36
12 28 51 46 46 43 42 45 48 54 49 57 46 65 72 75 71 72 63 53 40 33
11 27 44 47 43 46 40 50 55 52 54 68 75 81 78 81 81 72 58 44 45 51
12 38 39 44 47 59 60 59 59 58 60 65 78 82 83 84 69 57 53 54 52 49
14 38 46 52 60 66 62 59 59 64 66 73 88 87 85 80 73 71 71 63 54 48
22 48 58 58 65 67 64 61 59 71 75 77 80 82 80 76 74 73 72 67 61 51
Wind_Direction_850mb
227 239 244 244 238 240 233 220 216 206 212 205 202 203 205 199 194 197 197 199 204 209
227 234 239 238 233 234 234 233 229 220 220 207 205 200 199 199 193 194 199 200 206 214
219 231 238 231 230 231 237 243 234 223 221 216 193 191 202 197 187 189 191 198 200 198
211 217 234 248 238 226 234 244 240 240 213 202 198 185 194 197 187 188 186 185 189 175
200 215 232 260 249 236 231 236 240 237 209 204 163 199 209 201 187 184 177 174 172 165
221 219 229 203 236 245 232 227 230 218 204 190 181 181 195 198 179 175 173 165 164 144
240 233 242 213 220 237 220 218 217 192 184 181 190 194 194 196 178 165 158 154 146 132
334 243 201 194 205 217 198 194 205 201 185 184 191 189 180 174 165 158 150 146 137 134
224 221 207 195 201 196 177 158 151 158 181 197 181 199 186 168 162 156 151 145 139 125
292 224 211 198 198 194 186 184 172 173 170 155 170 201 176 168 164 158 149 145 141 145
289 220 207 197 191 176 168 162 161 171 175 176 175 181 174 166 158 154 155 152 141 139
228 213 203 195 179 166 165 166 166 171 172 173 167 169 170 163 159 167 154 133 139 142
223 207 199 188 172 167 171 169 167 169 174 178 168 170 169 179 174 148 142 142 140 142
240 206 207 187 174 170 171 168 164 168 171 171 170 175 181 169 154 149 148 144 144 142